RH
12 10 14 26 48 59 73 80 78 78 78 76 72 73 78 77 74 71 72 63 57 47 47 39 33 28 22 19 16 16 17 15 16 18 24 26 33 33 27 24 23 23 24 27 28 30 31 29 29
15 15 20 38 57 72 77 80 81 79 83 80 77 77 74 78 76 74 63 61 56 47 41 36 33 29 25 22 20 19 18 15 15 17 18 22 30 26 25 21 20 21 23 30 33 34 31 32 32
20 19 28 53 67 72 77 82 86 91 89 83 85 83 81 80 71 64 64 53 44 41 39 36 34 30 27 24 24 24 22 17 15 15 15 19 26 26 23 20 18 19 21 23 26 28 29 30 30
22 25 38 54 66 74 74 77 83 94 95 92 85 87 85 77 71 71 57 48 40 34 32 30 30 29 28 27 25 26 27 22 15 16 14 15 18 21 22 20 19 19 21 24 25 27 30 31 30
29 32 45 59 64 77 76 77 78 87 93 92 91 91 87 81 72 64 53 44 37 31 27 26 27 27 26 27 27 27 28 27 21 16 15 14 15 18 18 19 20 20 21 24 25 26 30 31 30
30 41 59 59 61 71 80 85 80 83 85 88 89 90 84 78 67 58 52 47 47 41 36 32 31 29 29 27 27 28 28 29 28 22 16 15 15 15 16 17 18 20 21 23 25 26 28 29 29
36 49 60 60 64 68 74 77 72 75 80 83 85 88 84 79 68 64 59 54 51 48 47 48 43 42 39 32 29 27 28 28 29 29 25 18 15 15 15 16 18 18 20 21 23 25 26 26 27
43 53 57 62 65 71 73 76 78 77 81 85 87 85 84 87 75 71 64 60 56 56 56 57 58 57 56 51 42 35 32 30 29 29 29 27 24 18 17 17 18 19 20 20 21 24 25 25 25
34 44 55 52 52 61 68 72 73 78 76 77 80 85 86 81 75 69 68 68 64 61 63 65 71 70 67 65 63 58 52 41 34 32 32 29 28 30 26 23 21 19 18 19 20 21 23 23 24
32 35 38 46 50 54 56 61 65 67 69 67 70 68 70 76 73 75 74 67 62 70 75 76 76 76 78 78 75 68 67 63 55 43 38 39 37 36 33 33 29 25 21 18 18 18 18 19 20
28 36 38 43 48 54 54 55 58 61 60 57 62 61 66 66 72 73 70 67 67 66 62 59 61 66 65 72 72 70 68 70 69 64 59 50 47 44 40 38 35 35 30 23 20 19 18 18 21
29 31 33 35 41 44 46 47 50 49 53 51 52 52 51 54 57 57 58 56 54 51 50 51 56 58 59 64 66 69 72 77 75 75 73 69 61 52 50 45 41 40 39 36 30 26 20 25 28
30 29 29 32 33 34 34 36 38 42 43 43 43 42 41 41 44 44 44 43 43 42 41 40 38 38 39 39 43 52 59 63 69 75 77 78 76 76 64 55 54 49 47 45 43 39 38 32 31
31 31 31 33 33 34 31 33 31 34 34 33 33 33 33 32 32 30 29 26 22 19 16 13 12 13 14 15 18 21 23 26 35 46 53 64 70 79 82 80 68 59 59 56 53 50 48 45 41
28 28 31 34 37 35 32 33 32 29 25 23 21 17 15 14 13 12 11 10 10 9 8 7 6 5 6 7 8 9 10 12 15 17 21 29 38 48 65 71 82 84 84 70 62 61 60 57 58
28 26 30 27 23 20 17 26 21 20 17 15 14 12 11 12 12 11 11 11 11 11 11 10 10 8 7 7 7 7 7 7 7 8 10 12 15 18 27 41 55 67 80 89 93 74 72 68 68
20 19 23 18 14 13 14 21 19 18 18 16 18 15 14 15 14 14 13 13 13 13 12 10 11 11 9 9 9 9 8 8 8 7 7 7 7 9 13 17 23 31 48 63 73 83 94 83 76
11 15 15 14 13 14 16 18 19 20 21 20 20 20 19 18 18 17 17 16 16 15 13 13 14 14 13 13 12 11 10 10 9 9 8 8 8 8 8 8 11 16 20 24 36 52 72 80 90
10 12 15 15 15 16 19 20 20 21 24 24 21 21 21 21 20 21 20 19 20 18 17 17 17 16 15 14 14 14 13 12 12 11 10 10 9 9 8 9 9 9 12 16 22 27 38 54 77
12 14 16 16 17 18 21 22 22 24 25 25 25 24 25 25 23 24 24 22 21 19 18 17 15 14 14 14 14 15 15 14 14 13 12 11 10 10 10 9 9 9 10 11 14 16 25 37 50
11 15 15 18 21 22 23 26 24 24 25 26 28 28 27 26 25 24 24 21 17 16 16 15 14 14 13 13 13 14 14 14 14 14 13 12 12 11 10 10 10 9 9 10 11 12 15 19 32
12 11 14 20 22 28 25 27 25 24 25 27 29 29 29 28 27 24 21 19 17 17 16 16 16 15 14 14 12 10 10 10 11 11 11 10 10 9 9 9 9 9 9 9 9 11 12 13 14
12 13 15 16 18 22 27 30 21 25 26 27 29 30 30 29 28 23 21 19 17 17 17 17 18 17 14 13 12 11 9 8 8 7 7 8 8 8 8 8 8 8 8 8 8 9 9 11 13
13 15 18 20 21 27 22 30 24 26 23 26 29 30 31 29 28 24 21 18 17 16 17 17 18 19 18 17 15 14 13 11 9 7 6 6 6 6 6 6 6 6 6 7 7 8 8 9 11
18 19 34 31 36 31 24 32 26 23 25 26 28 30 30 30 28 24 21 19 18 18 18 19 20 20 21 19 19 17 15 13 12 10 7 6 6 6 5 5 5 5 5 5 6 6 6 7 8
20 23 33 25 36 30 30 30 29 24 24 26 27 29 31 30 27 25 22 20 20 20 20 20 20 20 21 22 21 19 17 17 16 14 11 8 7 7 7 6 6 6 5 5 5 6 6 6 7
18 26 26 35 36 33 27 25 27 25 26 27 29 30 31 29 27 26 24 22 22 21 21 21 21 20 20 21 22 22 22 21 21 20 18 14 9 8 8 8 7 7 7 6 6 6 6 6 6
18 21 26 30 18 26 25 30 31 24 25 28 29 30 30 28 29 26 25 24 24 23 24 23 22 22 23 23 24 24 24 24 24 24 23 21 17 12 10 9 8 8 8 8 8 7 7 7 7
22 26 27 25 31 32 37 23 26 25 26 28 29 30 29 29 28 28 26 25 26 26 25 25 24 24 25 25 25 25 25 25 26 27 27 26 24 22 17 13 10 9 9 9 9 9 9 8 8
17 19 23 30 23 39 40 28 24 25 26 28 30 30 31 31 30 30 30 29 29 28 28 27 27 27 27 27 28 28 28 28 29 30 30 30 29 27 26 24 22 16 13 12 12 11 11 11 10